Regional Weather Roundup
Issued by NWS

Home | Current Version | Previous Version | Text Only | Print | Product List | Glossary On
Versions: 1 2 3 4 5 6 7 8 9 10 11 12 13 14 15 16 17 18 19 20 21 22 23 24 25 26 27 28 29 30 31 32 33 34 35 36 37 38 39 40 41 42 43 44 45 46 47 48 49 50
000
ASUS43 KOAX 010710
RWRNE

WEATHER ROUNDUP FOR NEBRASKA
NATIONAL WEATHER SERVICE OMAHA NE
100 AM CST SUN MAR 01 2015

NOTES: SATELLITE DATA IS BEING USED TO AUGMENT CLOUD COVER ABOVE
       12000 FEET.
       "FAIR" INDICATES FEW OR NO CLOUDS BELOW 12,000 FEET WITH NO
       SIGNIFICANT WEATHER AND/OR OBSTRUCTIONS TO VISIBILITY.

  * THESE STATIONS DO NOT REPORT WEATHER SUCH AS RAIN...SNOW OR FOG.

NEZ001>004-019>022-054>056-010800-
NEBRASKA PANHANDLE

CITY           SKY/WX    TMP DP  RH WIND       PRES   REMARKS
SCOTTSBLUFF    CLOUDY    23  13  65 NE8       30.10R WCI  14
ALLIANCE       CLOUDY    18  11  74 E8        30.11R WCI   8
CHADRON        CLOUDY    19   9  65 NE10      30.18S WCI   7
KIMBALL        CLOUDY    21  17  84 CALM      30.03R
SIDNEY         CLOUDY    20  14  77 S5        30.09R WCI  13
$$

NEZ057>060-069>072-079>082-010800-
SOUTHWEST NEBRASKA

CITY           SKY/WX    TMP DP  RH WIND       PRES   REMARKS
NORTH PLATTE   MOCLDY    16  10  77 S5        30.18F WCI   9
IMPERIAL         N/A     16  11  80 SE6       30.14S WCI   7
LEXINGTON      PTCLDY    14  11  89 S6        30.21F WCI   5
MCCOOK         MOCLDY    20  14  77 S7        30.20F WCI  11
OGALLALA       CLOUDY    20  13  75 CALM      30.15R
$$

NEZ005>010-023>029-035>040-094-010800-
NORTH CENTRAL NEBRASKA

CITY           SKY/WX    TMP DP  RH WIND       PRES   REMARKS
VALENTINE      CLOUDY    19   5  54 NE8       30.22R WCI   9
AINSWORTH      PTCLDY    16   5  62 N5        30.22R WCI   9
BROKEN BOW     PTCLDY    16  11  80 CALM      30.20F
O`NEILL        CLEAR     16  11  78 CALM      30.24R
ORD            CLEAR     12   7  80 CALM      30.23S
THEDFORD       CLEAR     17  11  78 CALM      30.17F
$$

NEZ041-046>049-061>064-073>077-083>087-010800-
SOUTH CENTRAL NEBRASKA

CITY           SKY/WX    TMP DP  RH WIND       PRES   REMARKS
GRAND ISLAND   CLEAR     15  12  88 SW9       30.28R WCI   3
AURORA         PTCLDY    14  11  87 SW7       30.28S WCI   4
HASTINGS       PTCLDY    15  12  88 S6        30.27R WCI   6
HEBRON         MOCLDY    20  15  81 S3        30.33S
HOLDREGE       PTCLDY    14  11  88 CALM      30.23F
KEARNEY *      CLEAR     12  10  92 S8        30.25F WCI   1
YORK           PTCLDY    12  10  92 SW6       30.30S WCI   3
$$

NEZ011>018-030>034-042>045-010800-
NORTHEAST NEBRASKA

CITY           SKY/WX    TMP DP  RH WIND       PRES   REMARKS
NORFOLK        CLEAR     17  13  84 SW10      30.27F WCI   5
ALBION         CLEAR     13   9  83 S5        30.27R WCI   6
BLAIR          CLOUDY    22  16  75 SW8       30.31F WCI  13
COLUMBUS *     CLEAR     16   7  67 SW6       30.31S WCI   7
FREMONT        CLEAR     19  14  79 S7        30.33S WCI  10
TEKAMAH        CLEAR     13  10  88 S7        30.34R WCI   3
WAYNE          PTCLDY    15  11  85 SW8       30.28F WCI   4
$$

NEZ050>053-065>068-078-088>093-010800-
SOUTHEAST NEBRASKA

CITY           SKY/WX    TMP DP  RH WIND       PRES   REMARKS
LINCOLN        CLOUDY    21  14  74 SW10      30.35S WCI  10
OMAHA EPPLEY   CLOUDY    23  15  71 SW10      30.36S WCI  12
BEATRICE       CLOUDY    21  18  88 SW3       30.34S
FALLS CITY     CLOUDY    19  16  88 CALM      30.37S
NEBRASKA CITY  CLOUDY    21  17  82 SW3       30.35R
PLATTSMOUTH    CLOUDY    21  16  79 SW5       30.35R WCI  15
$$

NEZ044-045-051>053-067-010800-
OMAHA AREA

CITY           SKY/WX    TMP DP  RH WIND       PRES   REMARKS
OMAHA EPPLEY   CLOUDY    23  15  71 SW10      30.36S WCI  12
BLAIR          CLOUDY    22  16  75 SW8       30.31F WCI  13
FREMONT        CLEAR     19  14  79 S7        30.33S WCI  10
MILLARD        CLOUDY    23  16  73 SW7       30.35S WCI  15
OFFUTT AFB     CLOUDY    22  15  74 SW5       30.34F WCI  16
PLATTSMOUTH    CLOUDY    21  16  79 SW5       30.35R WCI  15
WAHOO          CLOUDY    20  13  75 SW6       30.34S WCI  12
$$



USA.gov is the U.S. government's official web portal to all federal, state and local government web resources and services.